Flag for U.S.A. Weather past 2 weeks in Tuba City, Arizona, U.S.A.

Now
62 °F

Clear.


Feels Like: 62 °F
Forecast: 47 / 72 °F
Wind: 10 mph from Southwest

Location: Grand Canyon National Park Airport

Current Time: Oct 25, 2014 at 8:07:08 PM

Latest Report: Oct 25, 2014 at 6:54 PM


Visibility: 9 mi

Pressure: 30.11 "Hg

Humidity: 44%

Dew point: 40 °F

Location of Tuba CityLocation

Historic Weather in Tuba City — Graph

°F

Tuba City temperature yesterday

Maximum temperature yesterday: 74 °F (at 3:54 PM)
Minimum temperature yesterday: 28 °F (at 5:54 AM)
Average temperature yesterday: 49 °F

Past Weeks' High & Low Weather Summary

 TemperatureHumidityPressure
High74 °F (Oct 24, 3:54 PM)92% (Oct 11, 5:54 AM)30.31 "Hg (Oct 11, 5:54 AM)
Low25 °F (Oct 13, 7:54 AM)12% (Oct 24, 4:54 PM)29.86 "Hg (Oct 12, 5:54 AM)
Average49 °F50%30.07 "Hg
* Reported Oct 10 6:54 PM — Oct 25 6:54 PM, Tuba City, Weather by CustomWeather, © 2014

Note: Actual official high and low records may vary slightly from our data, if they occured in-between our weather recording intervals... More about our weather records

Advertising

Tuba City weather history for previous 24 hours

 ConditionsComfort  
Time TempWeatherWind HumidityBarometerVisibility
6:54 PM
Oct 25
62 °FClear.10 mph44%30.11 "Hg9 mi
5:54 PM67 °FScattered clouds.17 mph35%30.09 "Hg10 mi
4:54 PM70 °FBroken clouds.12 mph34%30.09 "Hg10 mi
3:54 PM68 °FPartly sunny.21 mph36%30.11 "Hg10 mi
2:54 PM70 °FBroken clouds.16 mph34%30.11 "Hg10 mi
1:54 PM71 °FScattered clouds.15 mph34%30.12 "Hg10 mi
12:54 PM68 °FPartly sunny.15 mph38%30.16 "Hg10 mi
11:54 AM69 °FSunny.15 mph36%30.17 "Hg10 mi
10:54 AM65 °FSunny.10 mph39%30.18 "Hg10 mi
9:54 AM61 °FSunny.7 mph46%30.19 "Hg10 mi
8:54 AM41 °FSunny.No wind65%30.26 "Hg5 mi
7:54 AM30 °FSunny.No wind79%30.27 "Hg4 mi
6:54 AM30 °FClear.No wind75%30.24 "Hg5 mi
5:54 AM30 °FClear.No wind75%30.16 "Hg5 mi
4:54 AM31 °FClear.No wind73%30.14 "Hg4 mi
3:54 AM32 °FClear.3 mph69%30.15 "Hg4 mi
2:54 AM33 °FClear.No wind66%30.17 "Hg3 mi
1:54 AM34 °FClear.No wind61%30.16 "Hg5 mi
12:54 AM34 °FClear.No wind61%30.17 "Hg7 mi
11:54 PM
Oct 24
36 °FClear.No wind57%30.18 "Hg10 mi
10:54 PM38 °FClear.No wind53%30.18 "Hg10 mi
9:54 PM41 °FClear.No wind47%30.19 "Hg10 mi
8:54 PM43 °FClear.No wind43%30.25 "Hg10 mi
Weather by CustomWeather, © 2014

See weather overviewHow to use our weather pages